Location: Marstown
(39.5056°N, 77.0820°W)
Time: 18:26:21
(UTC-04:00)

ISS - Visible Passes

Search period start: 23 May 2018 00:00
Search period end: 02 June 2018 00:00
Orbit: 402 x 407 km, 51.6° (Epoch: 24 May)

Date Brightness Start Highest point End Pass type
(mag) Time Alt. Az. Time Alt. Az. Time Alt. Az.
23 May -0.1 00:52:12 10° N 00:52:27 10° N 00:52:43 10° N visible
23 May -1.1 02:27:27 10° NNW 02:29:57 20° NNE 02:32:26 10° ENE visible
23 May -4.0 04:03:27 10° WNW 04:06:41 65° SW 04:09:55 10° SE visible
23 May -1.0 22:19:54 10° WNW 22:22:25 20° NNW 22:24:56 10° NNE visible
23 May -0.2 23:59:36 10° N 23:59:54 10° N 00:00:13 10° N visible
24 May -0.6 01:35:35 10° NNW 01:37:30 15° NNE 01:37:42 15° NNE visible
24 May -1.7 21:27:07 10° W 21:30:03 30° NNW 21:32:59 10° NE visible
24 May -0.4 23:06:17 10° NNW 23:07:22 11° N 23:08:26 10° N visible
25 May -0.5 00:43:44 10° NNW 00:45:01 12° NNE 00:46:03 11° NNE visible
25 May -0.6 22:13:05 10° NW 22:14:50 14° NNW 22:16:35 10° NNE visible
25 May -0.3 23:51:53 10° N 23:52:28 10° N 23:53:02 10° NNE visible
26 May -0.6 01:27:14 10° NNW 01:27:40 12° NNW 01:27:40 12° NNW visible
26 May -0.8 21:20:01 10° WNW 21:22:21 18° NNW 21:24:41 10° NNE visible
27 May -0.7 00:35:18 10° NNW 00:36:52 16° N 00:36:52 16° N visible
27 May -0.5 22:06:28 10° NNW 22:07:17 11° N 22:08:07 10° N visible
27 May -0.7 23:43:24 10° NNW 23:44:56 13° NNE 23:46:09 11° NE visible
28 May -0.7 21:13:11 10° NW 21:14:43 13° NNW 21:16:14 10° NNE visible
28 May -0.6 22:51:31 10° N 22:52:21 11° N 22:53:12 10° NNE visible
29 May -0.9 00:26:55 10° NNW 00:28:06 18° NNW 00:28:06 18° NNW visible
29 May -1.3 23:34:56 10° NNW 23:37:16 18° NNE 23:37:28 18° NNE visible
30 May -0.6 21:06:32 10° NNW 21:07:06 10° N 21:07:41 10° N visible
30 May -0.9 22:42:58 10° NNW 22:44:44 14° NNE 22:46:30 10° NE visible
31 May -1.0 00:18:36 10° NW 00:19:30 17° NW 00:19:30 17° NW visible
31 May -0.8 21:51:02 10° N 21:52:08 11° N 21:53:14 10° NNE visible
31 May -1.9 23:26:29 10° NW 23:28:55 28° N 23:28:55 28° N visible
01 Jun -1.6 22:34:26 10° NNW 22:36:58 20° NNE 22:38:21 16° ENE visible
